E3980 Weather Reports


time (UTC)temp
C
wind
direction
speed
KPH
gust
KPH
rain 1hr
cm
rain 24hr
cm
rain mn
cm
humidity
%
barometer
mb
20260505173132 23 229 11.3 24.1 0.00 0.00 0.00 45 975.4
20260505172632 23 231 11.3 24.1 0.00 0.00 0.00 42 975.6
20260505172132 23 151 9.7 22.5 0.00 0.00 0.00 42 975.7
20260505171129 23 215 9.7 17.7 0.00 0.00 0.00 45 975.8
20260505170629 23 242 6.4 20.9 0.00 0.00 0.00 48 975.7
20260505170130 23 338 8.0 20.9 0.00 0.00 0.00 45 975.7
20260505165628 23 224 9.7 19.3 0.00 0.00 0.00 50 975.9
20260505165128 22 219 9.7 19.3 0.00 0.00 0.00 48 975.9
20260505164628 23 206 9.7 20.9 0.00 0.00 0.00 48 976.0
20260505164128 22 219 11.3 22.5 0.00 0.00 0.00 49 975.9
20260505163627 22 186 11.3 24.1 0.00 0.00 0.00 49 976.0
20260505162627 22 240 9.7 24.1 0.00 0.00 0.00 52 976.1
20260505162128 22 184 11.3 22.5 0.00 0.00 0.00 50 975.9
20260505161626 22 215 11.3 22.5 0.00 0.00 0.00 49 975.8
20260505161127 22 162 11.3 22.5 0.00 0.00 0.00 50 975.9
20260505160626 22 263 8.0 22.5 0.00 0.00 0.00 48 976.0
20260505160126 22 241 4.8 11.3 0.00 0.00 0.00 53 976.0
20260505153120 22 243 4.8 19.3 0.00 0.00 0.00 54 976.0
20260505152621 21 259 4.8 19.3 0.00 0.00 0.00 57 976.1
20260505152122 21 210 3.2 14.5 0.00 0.00 0.00 62 976.1
20260505151122 20 185 6.4 14.5 0.00 0.00 0.00 61 976.1
20260505150622 20 136 4.8 14.5 0.00 0.00 0.00 62 976.1
20260505150121 20 211 4.8 11.3 0.00 0.00 0.00 62 976.2
20260505140615 18 199 3.2 9.7 0.00 0.00 0.00 70 976.1
20260505140114 18 96 3.2 9.7 0.00 0.00 0.00 70 976.0
20260505124601 12 253 0.0 3.2 0.00 0.00 0.00 92 976.0
20260505124101 12 253 0.0 3.2 0.00 0.00 0.00 93 976.0
20260505123058 11 147 0.0 1.6 0.00 0.00 0.00 92 975.9
20260505122556 11 147 0.0 1.6 0.00 0.00 0.00 92 976.0
20260505121549 10 226 0.0 1.6 0.00 0.00 0.00 92 976.1
20260505121043 10 226 0.0 3.2 0.00 0.00 0.00 93 975.9
20260505120537 10 221 0.0 3.2 0.00 0.00 0.00 92 975.6
20260505120030 10 158 0.0 3.2 0.00 0.00 0.00 93 975.6
20260505115019 10 228 0.0 1.6 0.00 0.00 0.00 93 975.4
20260505114513 10 228 0.0 1.6 0.00 0.00 0.00 93 975.3
20260505113501 9 227 0.0 3.2 0.00 0.00 0.00 93 975.2
20260505111943 9 275 0.0 4.8 0.00 0.00 0.00 93 975.0
20260505110425 9 263 0.0 1.6 0.00 0.00 0.00 93 975.0
20260505101830 8 161 0.0 0.0 0.00 0.00 0.00 94 974.2
20260505100819 8 161 0.0 0.0 0.00 0.00 0.00 94 974.1
20260505100312 8 161 0.0 0.0 0.00 0.00 0.00 94 974.1
20260505095807 8 161 0.0 0.0 0.00 0.00 0.00 94 974.1
20260505095304 8 161 0.0 0.0 0.00 0.00 0.00 93 974.0
20260505094755 8 161 0.0 0.0 0.00 0.00 0.00 94 974.2
20260505094249 8 161 0.0 0.0 0.00 0.00 0.00 94 974.1
20260505093743 8 161 0.0 0.0 0.00 0.00 0.00 94 974.1
20260505092234 8 161 0.0 0.0 0.00 0.00 0.00 94 974.0
20260505091234 8 161 0.0 0.0 0.00 0.00 0.00 94 974.0
20260505090230 8 161 0.0 0.0 0.00 0.00 0.00 93 974.0
20260505085229 8 161 0.0 0.0 0.00 0.00 0.00 93 974.1
20260505084728 8 161 0.0 1.6 0.00 0.00 0.00 93 974.0
20260505084228 8 161 0.0 1.6 0.00 0.00 0.00 94 974.1
20260505083725 8 259 0.0 1.6 0.00 0.00 0.00 93 973.9
20260505083222 8 259 0.0 1.6 0.00 0.00 0.00 93 974.0
20260505082720 8 259 0.0 1.6 0.00 0.00 0.00 93 973.9
20260505082218 8 259 0.0 1.6 0.00 0.00 0.00 93 973.9
20260505081715 8 259 0.0 0.0 0.00 0.00 0.00 93 973.9
20260505081215 8 259 0.0 3.2 0.00 0.00 0.00 93 974.1
20260505080715 8 259 0.0 3.2 0.00 0.00 0.00 93 974.2
20260505080213 8 259 0.0 1.6 0.00 0.00 0.00 93 974.2
20260505075215 8 259 0.0 1.6 0.00 0.00 0.00 93 974.4
20260505074708 9 225 0.0 3.2 0.00 0.00 0.00 93 974.5
20260505074200 9 221 0.0 3.2 0.00 0.00 0.00 93 974.5
20260505073159 9 127 0.0 3.2 0.00 0.00 0.00 93 974.6
20260505072658 9 251 0.0 3.2 0.00 0.00 0.00 93 974.5
20260505072156 9 260 0.0 3.2 0.00 0.00 0.00 93 974.7
20260505071656 9 214 0.0 3.2 0.00 0.00 0.00 93 974.6
20260505071155 9 268 0.0 3.2 0.00 0.00 0.00 93 974.7
20260505070657 9 240 0.0 3.2 0.00 0.00 0.00 93 974.7
20260505070155 8 204 0.0 3.2 0.00 0.00 0.00 93 974.8
20260505065654 8 245 0.0 3.2 0.00 0.00 0.00 93 974.7
20260505065155 9 245 0.0 3.2 0.00 0.00 0.00 93 974.8
20260505064151 9 264 0.0 0.0 0.00 0.00 0.00 93 974.9
20260505063145 9 264 0.0 1.6 0.00 0.00 0.00 92 974.9
20260505062641 9 264 0.0 1.6 0.00 0.00 0.00 92 974.9
20260505062142 9 197 0.0 1.6 0.00 0.00 0.00 92 975.1
20260505061643 9 197 0.0 3.2 0.00 0.00 0.00 93 975.1
20260505061142 9 195 0.0 3.2 0.00 0.00 0.00 92 975.0
20260505060142 9 297 0.0 0.0 0.00 0.00 0.00 92 975.1
20260505055643 9 297 0.0 0.0 0.00 0.00 0.00 92 975.0
20260505054643 9 297 0.0 1.6 0.00 0.00 0.00 92 975.1
20260505054141 9 279 0.0 1.6 0.00 0.00 0.00 91 975.0
20260505053643 9 279 0.0 1.6 0.00 0.00 0.00 91 975.1
20260505053141 9 280 0.0 0.0 0.00 0.00 0.00 91 975.1
20260505052141 10 280 0.0 0.0 0.00 0.00 0.00 91 975.1
20260505050642 10 280 0.0 0.0 0.00 0.00 0.00 90 975.2
20260505050135 10 280 0.0 0.0 0.00 0.00 0.00 90 975.2
20260505041542 11 280 0.0 1.6 0.00 0.00 0.00 88 975.0
20260505041037 11 280 0.0 0.0 0.00 0.00 0.00 87 975.0
20260505040530 11 280 0.0 0.0 0.00 0.00 0.00 87 975.0
20260505040024 11 280 0.0 0.0 0.00 0.00 0.00 86 975.0
20260505035518 11 280 0.0 0.0 0.00 0.00 0.00 85 975.0
20260505035012 11 280 0.0 0.0 0.00 0.00 0.00 86 975.0
20260505034000 11 280 0.0 0.0 0.00 0.00 0.00 86 975.0
20260505033454 11 280 0.0 0.0 0.00 0.00 0.00 85 975.0
20260505032948 11 279 0.0 1.6 0.00 0.00 0.00 84 975.2
20260505032442 11 279 0.0 1.6 0.00 0.00 0.00 83 975.1
20260505031936 11 279 0.0 0.0 0.00 0.00 0.00 83 975.0
20260505031430 12 279 0.0 0.0 0.00 0.00 0.00 82 975.1
20260505030924 12 279 0.0 0.0 0.00 0.00 0.00 82 975.2
20260505030418 12 279 0.0 0.0 0.00 0.00 0.00 81 975.1
20260505025912 12 279 0.0 0.0 0.00 0.00 0.00 80 975.1
20260505025406 12 279 0.0 0.0 0.00 0.00 0.00 80 975.2
20260505024359 12 279 0.0 0.0 0.00 0.00 0.00 78 975.1
20260505023856 13 279 0.0 1.6 0.00 0.00 0.00 77 975.1
20260505023355 13 279 0.0 1.6 0.00 0.00 0.00 77 975.1
20260505022351 13 280 0.0 0.0 0.00 0.00 0.00 75 975.0
20260505021350 13 280 0.0 0.0 0.00 0.00 0.00 76 975.0
20260505020851 13 280 0.0 0.0 0.00 0.00 0.00 73 974.9
20260505020350 13 280 0.0 0.0 0.00 0.00 0.00 73 974.9
20260505015347 14 280 0.0 0.0 0.00 0.00 0.00 71 974.8
20260505014844 15 280 0.0 0.0 0.00 0.00 0.00 70 974.8
20260505014344 15 280 0.0 0.0 0.00 0.00 0.00 69 974.7
20260505013339 15 280 0.0 0.0 0.00 0.00 0.00 67 974.8
20260505011834 16 280 0.0 0.0 0.00 0.00 0.00 64 974.7
20260505011333 16 280 0.0 0.0 0.00 0.00 0.00 63 974.6
20260505010331 17 280 0.0 1.6 0.00 0.00 0.00 61 974.6
20260505005825 17 280 0.0 3.2 0.00 0.00 0.00 61 974.6
20260505005319 18 280 0.0 3.2 0.00 0.00 0.00 60 974.5
20260505004307 19 359 0.0 1.6 0.00 0.00 0.00 56 974.5
20260505003802 20 274 0.0 4.8 0.00 0.00 0.00 53 974.4
20260505003302 20 273 0.0 4.8 0.00 0.00 0.00 51 974.4
20260505002801 20 162 1.6 6.4 0.00 0.00 0.00 48 974.3
20260505002303 21 166 1.6 6.4 0.00 0.00 0.00 47 974.3
20260505001802 21 133 3.2 8.0 0.00 0.00 0.00 46 974.2
20260505001302 22 186 4.8 9.7 0.00 0.00 0.00 45 974.2
20260505000759 22 138 4.8 14.5 0.00 0.00 0.00 43 974.2
20260505000259 22 216 4.8 14.5 0.00 0.00 0.00 42 974.2
20260504235800 22 193 8.0 20.9 0.00 0.00 0.00 42 974.2
20260504235259 23 185 8.0 20.9 0.00 0.00 0.00 42 974.3
20260504234802 23 145 6.4 12.9 0.00 0.00 0.00 41 974.3
20260504234301 23 119 6.4 17.7 0.00 0.00 0.00 41 974.3
20260504233801 23 204 6.4 17.7 0.00 0.00 0.00 41 974.2
20260504233259 23 185 8.0 19.3 0.00 0.00 0.00 41 974.2
20260504232757 23 197 8.0 19.3 0.00 0.00 0.00 42 974.3
20260504232259 23 192 9.7 19.3 0.00 0.00 0.00 42 974.2
20260504231759 23 207 9.7 19.3 0.00 0.00 0.00 42 974.2
20260504230758 23 215 9.7 17.7 0.00 0.00 0.00 42 974.2
20260504230258 23 235 9.7 22.5 0.00 0.00 0.00 42 974.2
20260504225258 23 195 9.7 17.7 0.00 0.00 0.00 42 974.1
20260504224757 23 232 11.3 24.1 0.00 0.00 0.00 41 974.3
20260504223757 23 160 12.9 22.5 0.00 0.00 0.00 41 974.4
20260504223258 24 147 9.7 22.5 0.00 0.00 0.00 39 974.4
20260504222758 24 219 8.0 17.7 0.00 0.00 0.00 41 974.4
20260504222258 24 190 6.4 19.3 0.00 0.00 0.00 43 974.5
20260504221757 24 149 8.0 19.3 0.00 0.00 0.00 42 974.4
20260504220757 24 207 11.3 29.0 0.00 0.00 0.00 44 974.5
20260504220255 24 185 11.3 22.5 0.00 0.00 0.00 43 974.5
20260504215756 24 234 9.7 22.5 0.00 0.00 0.00 42 974.6
20260504215255 24 190 8.0 17.7 0.00 0.00 0.00 43 974.5
20260504214752 24 208 8.0 19.3 0.00 0.00 0.00 44 974.5
20260504214252 24 234 9.7 19.3 0.00 0.00 0.00 45 974.5
20260504213753 23 170 8.0 17.7 0.00 0.00 0.00 46 974.4
20260504213249 23 171 8.0 20.9 0.00 0.00 0.00 46 974.5
20260504212748 24 232 9.7 20.9 0.00 0.00 0.00 45 974.5
20260504212247 24 161 8.0 25.7 0.00 0.00 0.00 45 974.5
20260504211747 24 205 8.0 25.7 0.00 0.00 0.00 45 974.5
20260504211248 24 273 6.4 16.1 0.00 0.00 0.00 45 974.5
20260504210744 25 214 8.0 22.5 0.00 0.00 0.00 46 974.5
20260504205744 24 205 9.7 20.9 0.00 0.00 0.00 45 974.6
20260504205237 25 210 9.7 20.9 0.00 0.00 0.00 45 974.6
20260504204732 24 214 11.3 20.9 0.00 0.00 0.00 45 974.6
20260504204226 24 171 11.3 20.9 0.00 0.00 0.00 45 974.6
20260504203720 25 155 9.7 20.9 0.00 0.00 0.00 42 974.7
20260504203214 25 266 8.0 19.3 0.00 0.00 0.00 46 974.8
20260504202708 25 216 4.8 17.7 0.00 0.00 0.00 46 974.8
20260504202202 25 184 4.8 14.5 0.00 0.00 0.00 46 974.7
20260504201656 25 275 4.8 14.5 0.00 0.00 0.00 46 974.8
20260504200643 24 245 8.0 20.9 0.00 0.00 0.00 43 975.0
20260504200137 24 248 8.0 22.5 0.00 0.00 0.00 43 975.1
20260504195633 24 195 8.0 22.5 0.00 0.00 0.00 45 975.2
20260504195126 25 204 6.4 16.1 0.00 0.00 0.00 43 975.3
20260504194620 25 231 6.4 14.5 0.00 0.00 0.00 45 975.3
20260504194114 24 150 8.0 17.7 0.00 0.00 0.00 47 975.3
20260504193607 24 259 6.4 17.7 0.00 0.00 0.00 46 975.5
20260504193102 24 155 6.4 16.1 0.00 0.00 0.00 46 975.4
20260504192557 24 284 6.4 16.1 0.00 0.00 0.00 48 975.4
20260504192050 24 305 4.8 14.5 0.00 0.00 0.00 45 975.5
20260504191544 24 270 4.8 16.1 0.00 0.00 0.00 52 975.7
20260504191037 23 166 6.4 16.1 0.00 0.00 0.00 46 975.8
20260504190532 24 282 6.4 19.3 0.00 0.00 0.00 45 975.9
20260504184004 23 247 6.4 16.1 0.00 0.00 0.00 47 976.2
20260504183455 23 261 4.8 12.9 0.00 0.00 0.00 52 976.3
20260504182950 23 297 6.4 19.3 0.00 0.00 0.00 48 976.3
20260504181433 23 268 8.0 24.1 0.00 0.00 0.00 53 976.5
20260504180420 23 326 6.4 19.3 0.00 0.00 0.00 51 976.6
20260504175913 23 309 6.4 19.3 0.00 0.00 0.00 49 976.6
20260504175406 23 269 8.0 25.7 0.00 0.00 0.00 51 976.7
20260504174900 23 279 8.0 25.7 0.00 0.00 0.00 50 976.8
20260504173848 23 311 6.4 19.3 0.00 0.00 0.00 53 976.9